Waarnemingen

Advertentie
Mijn weer
Spa/La Sauveniere, België (6490): temperatuur & dauwpunt: 15.02.2019 19:00:00 - 21.02.2019 19:00:00 (CET)Spa/La Sauveniere, België (6490): windsnelheid & windstoten: 15.02.2019 19:00:00 - 21.02.2019 19:00:00 (CET)Spa/La Sauveniere, België (6490): windrichting: 15.02.2019 19:00:00 - 21.02.2019 19:00:00 (CET)Spa/La Sauveniere, België (6490): luchtdruk: 15.02.2019 19:00:00 - 21.02.2019 19:00:00 (CET)Spa/La Sauveniere, België (6490): zicht: 15.02.2019 19:00:00 - 21.02.2019 19:00:00 (CET)
Datum & Tijd tt [°C] td [°C] ff [km/u] ff [kn] fx [km/u] fx [kn] dd ppp [hPa] vv [km]
21.02.2019 19:00:00 8,6 3,3 4 2 - - ZW 1029,5 6
21.02.2019 18:00:00 9,9 3,8 7 4 18 10 W 1028,5 16
21.02.2019 17:00:00 9,9 3,9 11 6 25 14 W 1028,4 16
21.02.2019 16:00:00 10,3 3,8 14 8 - - W 1028,1 16
21.02.2019 15:00:00 10,3 4,0 14 8 29 16 W 1027,8 17
21.02.2019 14:00:00 9,4 3,6 18 10 29 16 W 1028,3 14
21.02.2019 13:00:00 9,7 4,9 14 8 - - WZW 1028,2 13
21.02.2019 12:00:00 8,7 4,5 14 8 - - W 1028,8 13
21.02.2019 11:00:00 8,7 4,5 18 10 29 16 ZW 1027,6 12
21.02.2019 10:00:00 8,0 4,1 11 6 - - WZW 1028,0 14
21.02.2019 09:00:00 7,5 3,7 11 6 18 10 WZW 1027,6 11
21.02.2019 08:00:00 6,6 3,0 11 6 18 10 ZZW 1026,8 10
21.02.2019 07:00:00 6,3 2,6 11 6 - - ZW 1026,8 10
21.02.2019 06:00:00 6,6 2,8 11 6 22 12 ZW 1026,8 16
21.02.2019 05:00:00 6,2 2,4 11 6 22 12 WZW 1027,1 14
21.02.2019 04:00:00 5,8 1,8 11 6 - - WZW 1027,0 12
21.02.2019 03:00:00 5,0 1,6 11 6 18 10 ZZW 1027,0 14
21.02.2019 02:00:00 5,4 1,3 11 6 22 12 ZZW 1026,7 18
21.02.2019 01:00:00 6,1 1,8 11 6 - - ZZW 1026,4 24
21.02.2019 00:00:00 6,1 1,6 7 4 18 10 ZZW 1026,2 25
20.02.2019 23:00:00 5,8 0,9 11 6 18 10 ZW 1026,3 23
20.02.2019 22:00:00 4,0 -1,3 11 6 - - Z 1026,5 29
20.02.2019 21:00:00 3,9 -1,8 11 6 14 8 Z 1026,2 30
20.02.2019 20:00:00 4,3 -1,8 7 4 14 8 ZZW 1025,8 35
20.02.2019 19:00:00 5,8 -1,2 7 4 - - ZW 1025,3 40
20.02.2019 18:00:00 7,4 0,3 7 4 18 10 ZW 1024,5 45
20.02.2019 17:00:00 8,5 0,7 11 6 22 12 W 1024,2 35
20.02.2019 16:00:00 8,6 0,4 7 4 - - W 1024,0 45
20.02.2019 15:00:00 8,6 0,2 14 8 29 16 WZW 1024,0 40
20.02.2019 14:00:00 8,7 1,2 14 8 29 16 W 1024,0 35
20.02.2019 13:00:00 7,6 1,1 18 10 - - ZW 1024,3 35
20.02.2019 12:00:00 6,8 2,1 14 8 25 14 ZW 1024,5 21
20.02.2019 11:00:00 5,5 1,6 14 8 25 14 ZZW 1024,4 16
20.02.2019 10:00:00 3,9 0,4 11 6 - - Z 1024,4 -
20.02.2019 09:00:00 3,3 1,6 14 8 22 12 ZZW 1023,9 -
20.02.2019 08:00:00 2,7 1,4 14 8 22 12 ZZW 1023,6 5
20.02.2019 07:00:00 2,1 -0,6 11 6 - - Z 1023,3 5
20.02.2019 06:00:00 2,1 -1,5 11 6 22 12 ZZW 1023,3 -
20.02.2019 05:00:00 2,3 0,8 11 6 22 12 Z 1022,9 -
20.02.2019 04:00:00 3,1 -0,2 11 6 - - ZZW 1022,9 10
20.02.2019 03:00:00 3,0 0,9 14 8 22 12 ZZW 1023,1 15
20.02.2019 02:00:00 2,9 -0,9 11 6 22 12 ZZW 1023,4 17
20.02.2019 01:00:00 3,2 -0,8 11 6 - - ZZW 1023,2 20
20.02.2019 00:00:00 3,3 -1,8 11 6 18 10 ZZW 1023,0 22
19.02.2019 23:00:00 3,5 -2,3 11 6 18 10 ZZW 1023,0 25
19.02.2019 22:00:00 3,9 -2,1 11 6 - - ZZW 1023,0 24
19.02.2019 21:00:00 4,6 -1,6 7 4 14 8 ZW 1022,6 26
19.02.2019 20:00:00 4,2 -3,2 7 4 11 6 ZW 1022,7 30
19.02.2019 19:00:00 4,9 -3,2 7 4 - - WZW 1022,2 35
19.02.2019 18:00:00 5,9 -2,7 7 4 29 16 W 1021,5 30
19.02.2019 17:00:00 7,6 -1,2 14 8 29 16 W 1021,1 30
19.02.2019 16:00:00 7,9 -1,5 14 8 - - W 1021,0 30
19.02.2019 15:00:00 8,3 -1,1 14 8 32 18 W 1020,9 35
19.02.2019 14:00:00 8,1 0,5 14 8 32 18 WNW 1020,9 28
19.02.2019 13:00:00 6,6 0,3 14 8 - - W 1021,3 25
19.02.2019 12:00:00 6,2 1,1 14 8 29 16 W 1021,4 30
19.02.2019 11:00:00 5,0 1,8 14 8 32 18 W 1021,5 18
19.02.2019 10:00:00 4,6 3,3 14 8 - - W 1021,3 -
19.02.2019 09:00:00 4,4 3,1 14 8 25 14 W 1020,6 4,0
19.02.2019 08:00:00 4,4 3,0 11 6 18 10 W 1019,8 3,3
19.02.2019 07:00:00 4,5 2,9 11 6 - - WZW 1019,1 5
19.02.2019 06:00:00 4,5 1,2 7 4 18 10 WZW 1019,0 5
19.02.2019 05:00:00 4,9 2,0 11 6 18 10 W 1018,7 6
19.02.2019 04:00:00 5,5 0,8 11 6 - - W 1018,3 -
19.02.2019 03:00:00 6,2 0,2 7 4 22 12 W 1018,2 22
19.02.2019 02:00:00 6,3 -0,5 11 6 22 12 ZW 1018,0 45
19.02.2019 01:00:00 6,3 -0,7 14 8 - - Z 1017,8 45
19.02.2019 00:00:00 6,7 -0,7 14 8 25 14 Z 1017,7 45
18.02.2019 23:00:00 6,9 -0,2 14 8 29 16 Z 1017,8 45
18.02.2019 22:00:00 6,5 -0,9 11 6 - - Z 1018,0 45
18.02.2019 21:00:00 6,9 -0,3 22 12 32 18 Z 1017,5 40
18.02.2019 20:00:00 7,4 -0,9 18 10 32 18 Z 1017,3 45
18.02.2019 19:00:00 8,0 -1,4 22 12 - - Z 1017,1 45
18.02.2019 18:00:00 9,0 -1,7 22 12 32 18 Z 1016,8 45
18.02.2019 17:00:00 10,5 -1,1 14 8 36 19 Z 1016,7 35
18.02.2019 16:00:00 10,6 -0,9 22 12 - - Z 1016,8 26
18.02.2019 15:00:00 11,9 -2,7 18 10 32 18 Z 1016,6 40
18.02.2019 14:00:00 12,7 -2,6 14 8 32 18 Z 1016,8 40
18.02.2019 13:00:00 11,8 -1,6 22 12 - - Z 1017,7 30
18.02.2019 12:00:00 10,5 -1,0 22 12 32 18 Z 1018,6 40
18.02.2019 11:00:00 8,7 -0,8 22 12 36 19 Z 1019,4 30
18.02.2019 10:00:00 7,1 -1,0 25 14 - - ZZO 1020,0 35
18.02.2019 09:00:00 5,8 -2,2 22 12 32 18 ZZO 1020,4 35
18.02.2019 08:00:00 5,7 -2,5 25 14 32 18 ZZO 1020,5 35
18.02.2019 07:00:00 5,9 -2,6 25 14 - - ZZO 1020,7 40
18.02.2019 06:00:00 6,8 -2,3 22 12 29 16 ZZO 1020,6 35
18.02.2019 05:00:00 6,5 -2,4 22 12 29 16 ZZO 1020,7 35
18.02.2019 04:00:00 6,3 -2,6 22 12 - - ZZO 1021,0 40
18.02.2019 03:00:00 6,4 -2,7 14 8 29 16 ZZO 1021,2 40
18.02.2019 02:00:00 7,4 -2,2 14 8 22 12 Z 1021,3 40
18.02.2019 01:00:00 7,3 -2,7 4 2 - - ZZO 1021,3 40
18.02.2019 00:00:00 7,1 -3,3 14 8 22 12 Z 1021,8 40
17.02.2019 23:00:00 8,2 -2,5 14 8 29 16 Z 1021,6 30
17.02.2019 22:00:00 8,5 -2,0 18 10 - - Z 1021,4 35
17.02.2019 21:00:00 9,1 -2,1 18 10 36 19 Z 1021,2 30
17.02.2019 20:00:00 9,6 -2,1 22 12 36 19 Z 1021,1 30
17.02.2019 19:00:00 9,7 -2,0 25 14 - - Z 1020,8 35
17.02.2019 18:00:00 10,6 -2,2 25 14 36 19 Z 1020,3 30
17.02.2019 17:00:00 12,7 -2,0 14 8 29 16 Z 1020,0 30
17.02.2019 16:00:00 14,1 -1,6 14 8 - - Z 1020,0 28
17.02.2019 15:00:00 14,7 -3,2 22 12 40 21 Z 1019,9 35
17.02.2019 14:00:00 14,0 -2,8 25 14 40 21 ZZO 1020,4 30
17.02.2019 13:00:00 12,6 -2,4 29 16 - - ZZO 1021,0 29
17.02.2019 12:00:00 11,1 -1,0 29 16 47 25 Z 1021,8 25
17.02.2019 11:00:00 8,7 -0,7 29 16 40 21 ZZO 1022,2 22
17.02.2019 10:00:00 6,7 -0,6 25 14 - - ZO 1022,9 17
17.02.2019 09:00:00 5,7 -0,5 29 16 36 19 ZZO 1023,3 14
17.02.2019 08:00:00 5,5 -0,8 18 10 25 14 ZZO 1023,5 13
17.02.2019 07:00:00 5,1 -0,9 14 8 - - ZZO 1023,7 11
17.02.2019 06:00:00 6,6 -0,2 25 14 29 16 ZZO 1023,9 13
17.02.2019 05:00:00 7,0 0,1 25 14 32 18 ZZO 1024,0 13
17.02.2019 04:00:00 6,4 -0,4 22 12 - - ZZO 1024,5 11
17.02.2019 03:00:00 5,9 -0,8 18 10 29 16 ZZO 1025,3 10
17.02.2019 02:00:00 6,5 -0,1 18 10 29 16 ZZO 1025,4 12
17.02.2019 01:00:00 7,8 -0,4 22 12 - - Z 1025,5 16
17.02.2019 00:00:00 7,4 -0,8 22 12 32 18 ZZO 1025,9 16
16.02.2019 23:00:00 7,8 -1,3 18 10 29 16 ZZO 1025,9 17
16.02.2019 22:00:00 8,0 -1,7 22 12 - - ZZO 1026,0 18
16.02.2019 21:00:00 8,3 -3,3 14 8 22 12 ZZO 1026,2 20
16.02.2019 20:00:00 9,2 -3,9 18 10 22 12 ZZO 1026,1 40
16.02.2019 19:00:00 8,8 -6,6 11 6 - - ZZO 1026,3 40
16.02.2019 18:00:00 11,0 -5,7 4 2 7 4 ZW 1026,0 45
16.02.2019 17:00:00 14,9 -4,1 7 4 14 8 ZW 1025,2 30
16.02.2019 16:00:00 15,2 -3,8 7 4 - - W 1025,4 35
16.02.2019 15:00:00 15,1 -5,6 7 4 25 14 W 1025,6 40
16.02.2019 14:00:00 14,4 -5,1 14 8 25 14 WZW 1026,1 40
16.02.2019 13:00:00 14,0 -1,9 14 8 - - ZW 1026,4 40
16.02.2019 12:00:00 12,0 -0,3 14 8 29 16 ZW 1027,0 30
16.02.2019 11:00:00 9,5 -0,1 18 10 25 14 Z 1027,3 28
16.02.2019 10:00:00 8,0 -0,6 4 2 - - Z 1027,5 28
16.02.2019 09:00:00 5,8 -2,3 22 12 36 19 ZZO 1027,3 30
16.02.2019 08:00:00 5,4 -3,0 18 10 25 14 ZZO 1027,3 35
16.02.2019 07:00:00 5,5 -2,8 14 8 - - ZZO 1026,9 35
16.02.2019 06:00:00 5,9 -3,0 25 14 36 19 ZZO 1027,4 45
16.02.2019 05:00:00 6,9 -2,5 22 12 36 19 Z 1027,1 40
16.02.2019 04:00:00 7,0 -2,4 25 14 - - Z 1027,5 45
16.02.2019 03:00:00 7,1 -2,4 25 14 36 19 ZZO 1027,9 45
16.02.2019 02:00:00 7,3 -2,3 25 14 40 21 ZZO 1027,8 45
16.02.2019 01:00:00 6,7 -2,2 29 16 - - ZZO 1028,2 45
16.02.2019 00:00:00 7,1 -2,8 22 12 36 19 ZZO 1028,2 45
15.02.2019 23:00:00 8,1 -2,5 18 10 29 16 ZZO 1028,4 45
15.02.2019 22:00:00 8,5 -2,5 22 12 - - ZZO 1028,6 45
15.02.2019 21:00:00 9,7 -2,8 25 14 40 21 ZZO 1028,1 45
15.02.2019 20:00:00 10,4 -3,1 29 16 40 21 ZZO 1028,3 45
15.02.2019 19:00:00 10,9 -4,9 22 12 - - Z 1028,5 50

tt = temperatuur
td = dauwpunt
ff = windsnelheid
fx = windstoten
dd = windrichting
ppp = luchtdruk
vv = zicht

Weerstations in de omgeving